Lid_Strength_Index
0 0 0 1 1 1 1 1 0 -0 -0 -1 -1 -1 -1 -0 1 3 6 4 2 -1 -0 4 5 5 5 4 4 5 10 11 11 11 10 9 10 9 8 9 9 8 10 10 9
0 0 1 1 1 1 1 1 0 0 -0 -0 -0 -1 -0 0 2 6 3 0 -1 -1 5 6 6 6 6 6 6 8 10 10 9 10 10 9 10 11 10 10 11 10 10 9 10
1 1 1 1 1 1 1 1 0 0 -0 -0 -0 -1 0 1 4 6 1 -0 0 2 5 5 5 5 7 7 8 8 10 9 9 8 9 10 11 10 11 12 11 12 12 11 11
1 1 2 2 2 2 1 1 0 0 -0 -0 -1 -1 1 2 8 5 1 0 0 3 5 6 6 7 8 9 8 11 9 8 8 9 10 11 10 11 11 11 11 11 11 11 12
1 2 2 2 2 2 2 1 0 0 0 -0 -1 -1 2 5 6 4 1 3 5 5 6 6 8 8 10 9 9 10 10 9 9 10 10 10 11 11 12 11 11 11 11 12 12
1 2 2 2 2 2 2 1 1 0 0 -0 -1 1 2 6 4 3 5 5 6 6 6 7 8 8 9 9 10 10 10 10 10 10 10 11 12 11 11 11 12 11 12 12 12
1 2 2 2 2 3 2 1 1 1 0 -0 -0 2 3 6 4 3 5 6 6 7 6 7 7 8 8 9 9 10 12 11 11 11 11 11 12 12 11 11 12 12 13 12 12
2 2 2 2 3 3 2 1 1 1 1 -0 0 2 5 3 3 4 4 5 6 6 6 7 7 8 9 9 10 12 13 14 11 11 11 12 15 13 12 12 14 14 15 14 13
2 3 2 2 3 3 2 1 1 1 1 0 2 3 6 3 4 4 5 7 6 6 7 7 7 9 9 11 13 13 16 15 13 11 12 12 15 12 12 13 14 15 15 15 14
2 3 2 3 3 3 2 1 0 1 2 4 4 5 5 5 4 4 5 6 7 7 7 8 9 11 11 13 17 17 17 15 15 13 12 13 13 13 13 14 16 17 16 16 16
2 3 3 3 3 2 2 3 5 4 6 7 7 7 6 4 4 6 6 7 7 8 9 8 12 13 12 13 14 14 15 15 13 12 15 14 15 14 14 15 17 17 17 17 17
2 3 3 4 3 2 2 6 6 6 10 6 6 6 4 5 8 7 6 9 9 11 9 10 12 12 12 12 13 13 15 15 14 12 14 15 15 15 15 16 16 17 17 17 17
2 3 3 4 3 3 5 6 4 4 9 7 6 6 6 6 8 8 8 9 10 10 11 13 11 11 12 13 14 14 15 16 16 14 14 15 17 18 17 16 16 16 16 17 17
3 3 4 4 4 4 5 4 3 4 11 9 9 7 7 7 9 7 8 9 9 11 13 13 12 12 13 13 14 16 15 15 16 18 20 16 22 18 18 18 17 17 18 18 18
3 3 4 4 5 5 5 4 4 6 17 9 8 7 7 9 9 8 8 9 11 11 13 13 14 14 14 14 13 15 15 16 16 18 19 18 21 19 18 19 18 18 18 18 18
3 4 5 4 4 5 5 5 6 11 16 10 8 9 9 10 9 8 9 9 10 12 12 13 12 13 14 12 13 14 16 16 16 18 23 19 20 20 19 17 18 18 18 17 18
3 5 5 5 6 5 4 6 11 15 9 11 10 9 10 10 10 10 10 12 13 14 14 13 14 13 13 15 14 15 18 22 23 23 23 20 22 19 19 18 18 18 18 18 18
4 5 4 5 4 5 4 10 15 11 10 10 10 10 11 10 10 11 13 14 11 13 15 16 17 14 13 16 18 17 19 23 27 25 24 21 24 20 18 17 17 17 17 17 17
5 4 4 4 4 4 9 13 14 11 9 10 11 12 11 11 12 13 13 13 12 12 16 16 16 15 16 16 16 18 21 18 22 27 28 24 20 18 18 18 18 18 18 18 17
4 5 4 4 4 5 12 12 11 8 9 10 12 10 13 12 13 13 13 12 13 13 13 15 18 16 18 17 18 19 17 22 22 30 30 23 22 21 21 19 19 19 19 18 17
5 7 5 4 4 8 15 13 10 7 8 10 11 12 11 12 12 13 12 12 12 14 15 16 17 19 18 20 20 21 22 21 21 22 27 28 24 20 19 18 19 19 18 17 17
5 9 5 3 9 9 11 10 9 9 9 10 10 11 11 11 12 12 12 11 13 14 17 16 17 21 19 19 19 20 20 20 25 25 24 25 24 17 17 17 18 19 18 17 16
8 7 5 5 12 11 9 10 9 9 10 11 11 10 10 12 14 12 11 14 13 15 17 17 19 22 21 22 20 22 21 21 21 21 24 25 24 17 17 17 18 19 18 17 16
7 12 10 9 9 11 11 11 11 10 10 10 10 10 11 12 11 13 13 15 14 15 15 14 18 20 19 18 20 23 22 21 22 24 23 23 22 18 16 17 18 18 18 17 16
6 9 9 13 12 11 10 10 11 11 10 9 11 11 11 13 13 13 12 17 17 16 17 17 21 20 19 20 20 21 21 22 23 22 23 21 21 18 17 19 19 19 17 17 16
8 9 9 9 9 11 11 11 11 10 9 11 11 10 11 13 12 14 12 14 17 18 18 18 22 20 22 21 22 23 22 21 21 21 21 20 21 15 16 17 20 17 17 17 17
5 5 7 9 10 10 11 11 10 9 8 8 8 10 12 11 10 12 13 12 14 17 19 19 21 22 23 22 22 25 22 21 20 19 19 22 19 17 18 18 19 18 17 17 17